When you browse on this site, cookies collect data to enhance your experience and personalize the content and advertising you see.
Visit our Privacy Policy to learn more. By continuing to use the site, you agree to this use of cookies and data.
  • In Hungary
  • List of Countries
  • For 7 days
  • Water Temperature
  • Satellite Maps
  • Weather Map
  • News
  • Weather Widgets
  • user-avatar
    Login

    Hourly Weather Montilla

    Today, 22 January, Tuesday

    Time Temperature Precipitation Wind Pressure Humidity
    00:00 +5°C° 0 mm 0 mps 738 mmHg 72%
    01:00 +5°C° 0 mm 0 mps 737 mmHg 73%
    02:00 +6°C° 0 mm 1 mps 737 mmHg 74%
    03:00 +5°C° 0 mm 1 mps 737 mmHg 76%
    04:00 +5°C° 0 mm 1 mps 737 mmHg 77%
    05:00 +4°C° 0 mm 0 mps 737 mmHg 78%
    06:00 +3°C° 0 mm 0 mps 737 mmHg 79%
    07:00 +5°C° 0 mm 1 mps 737 mmHg 78%
    08:00 +6°C° 0 mm 1 mps 737 mmHg 76%
    09:00 +6°C° 0 mm 1 mps 736 mmHg 75%
    10:00 +7°C° 0 mm 2 mps 736 mmHg 69%
    11:00 +8°C° 0 mm 3 mps 736 mmHg 62%
    12:00 +10°C° 0 mm 3 mps 736 mmHg 56%
    13:00 +10°C° 0 mm 4 mps 736 mmHg 55%
    14:00 +11°C° 0 mm 4 mps 735 mmHg 55%
    15:00 +10°C° 0 mm 5 mps 734 mmHg 54%
    16:00 +10°C° 0 mm 4 mps 734 mmHg 59%
    17:00 +8°C° 0 mm 4 mps 734 mmHg 64%
    18:00 +9°C° 0 mm 3 mps 734 mmHg 69%
    19:00 +8°C° 0.6 mm 4 mps 734 mmHg 74%
    20:00 +8°C° 0.6 mm 5 mps 734 mmHg 79%
    21:00 +7°C° 0.6 mm 5 mps 734 mmHg 83%
    22:00 +7°C° 0.4 mm 5 mps 734 mmHg 86%
    23:00 +7°C° 0.4 mm 5 mps 734 mmHg 89%

    Tomorrow, 23 January, Wednesday

    Time Temperature Precipitation Wind Pressure Humidity
    00:00 +7°C° 0.4 mm 5 mps 734 mmHg 92%
    01:00 +6°C° 0 mm 4 mps 734 mmHg 93%
    02:00 +7°C° 0 mm 3 mps 733 mmHg 93%
    03:00 +6°C° 0 mm 2 mps 733 mmHg 94%
    04:00 +6°C° 0 mm 2 mps 733 mmHg 94%
    05:00 +6°C° 0 mm 2 mps 734 mmHg 94%
    06:00 +5°C° 0 mm 2 mps 734 mmHg 94%
    07:00 +5°C° 0 mm 2 mps 734 mmHg 92%
    08:00 +5°C° 0 mm 3 mps 734 mmHg 90%
    09:00 +5°C° 0 mm 3 mps 734 mmHg 88%
    10:00 +7°C° 0 mm 3 mps 734 mmHg 85%
    11:00 +7°C° 0 mm 4 mps 734 mmHg 82%
    12:00 +10°C° 0 mm 4 mps 733 mmHg 79%
    13:00 +10°C° 0.1 mm 4 mps 733 mmHg 78%
    14:00 +11°C° 0.1 mm 4 mps 732 mmHg 78%
    15:00 +11°C° 0.1 mm 4 mps 732 mmHg 77%
    16:00 +11°C° 0.1 mm 4 mps 732 mmHg 79%
    17:00 +10°C° 0.1 mm 4 mps 731 mmHg 81%
    18:00 +10°C° 0.1 mm 4 mps 731 mmHg 83%
    19:00 +10°C° 0 mm 3 mps 731 mmHg 85%
    20:00 +9°C° 0 mm 3 mps 731 mmHg 87%
    21:00 +8°C° 0 mm 3 mps 732 mmHg 89%
    22:00 +8°C° 0 mm 3 mps 732 mmHg 90%
    23:00 +8°C° 0 mm 3 mps 732 mmHg 91%

    Day after tomorrow, 24 January, Thursday

    Time Temperature Precipitation Wind Pressure Humidity
    00:00 +7°C° 0 mm 3 mps 732 mmHg 93%
    01:00 +7°C° 0 mm 2 mps 732 mmHg 93%
    02:00 +7°C° 0 mm 2 mps 732 mmHg 93%
    03:00 +7°C° 0 mm 2 mps 732 mmHg 94%
    04:00 +7°C° 0 mm 1 mps 732 mmHg 94%
    05:00 +7°C° 0 mm 1 mps 732 mmHg 94%
    06:00 +7°C° 0 mm 1 mps 732 mmHg 95%
    07:00 +7°C° 0 mm 1 mps 732 mmHg 92%
    08:00 +8°C° 0 mm 1 mps 732 mmHg 90%
    09:00 +7°C° 0 mm 0 mps 733 mmHg 88%
    10:00 +9°C° 0 mm 1 mps 733 mmHg 83%
    11:00 +10°C° 0 mm 1 mps 733 mmHg 77%
    12:00 +12°C° 0 mm 1 mps 733 mmHg 71%
    13:00 +12°C° 0 mm 1 mps 733 mmHg 67%
    14:00 +13°C° 0 mm 1 mps 732 mmHg 64%
    15:00 +14°C° 0 mm 1 mps 732 mmHg 60%
    16:00 +13°C° 0 mm 1 mps 732 mmHg 65%
    17:00 +12°C° 0 mm 1 mps 732 mmHg 70%
    18:00 +11°C° 0 mm 1 mps 732 mmHg 75%
    19:00 +10°C° 0 mm 1 mps 733 mmHg 76%
    20:00 +10°C° 0 mm 1 mps 733 mmHg 77%
    21:00 +10°C° 0 mm 1 mps 734 mmHg 78%
    22:00 +9°C° 0 mm 1 mps 734 mmHg 79%
    23:00 +9°C° 0 mm 1 mps 734 mmHg 81%

    25 January, Friday

    Time Temperature Precipitation Wind Pressure Humidity
    00:00 +8°C° 0 mm 0 mps 734 mmHg 82%
    01:00 +8°C° 0 mm 0 mps 734 mmHg 83%
    02:00 +7°C° 0 mm 0 mps 734 mmHg 83%
    03:00 +7°C° 0 mm 0 mps 734 mmHg 84%
    04:00 +8°C° 0 mm 1 mps 734 mmHg 85%
    05:00 +8°C° 0 mm 1 mps 734 mmHg 86%
    06:00 +8°C° 0 mm 1 mps 734 mmHg 86%
    07:00 +8°C° 0 mm 1 mps 735 mmHg 84%
    08:00 +9°C° 0 mm 1 mps 735 mmHg 82%
    09:00 +10°C° 0 mm 1 mps 736 mmHg 79%
    10:00 +11°C° 0 mm 3 mps 736 mmHg 69%
    11:00 +13°C° 0 mm 4 mps 736 mmHg 59%
    12:00 +15°C° 0 mm 5 mps 736 mmHg 49%
    13:00 +15°C° 0 mm 5 mps 736 mmHg 47%
    14:00 +17°C° 0 mm 4 mps 735 mmHg 45%
    15:00 +17°C° 0 mm 4 mps 735 mmHg 43%
    16:00 +16°C° 0 mm 3 mps 735 mmHg 48%
    17:00 +14°C° 0 mm 2 mps 735 mmHg 53%
    18:00 +13°C° 0 mm 2 mps 735 mmHg 58%
    19:00 +12°C° 0 mm 1 mps 735 mmHg 60%
    20:00 +11°C° 0 mm 1 mps 736 mmHg 62%
    21:00 +11°C° 0 mm 1 mps 736 mmHg 64%
    22:00 +10°C° 0 mm 1 mps 736 mmHg 66%
    23:00 +10°C° 0 mm 1 mps 736 mmHg 67%

    26 January, Saturday

    Time Temperature Precipitation Wind Pressure Humidity
    00:00 +9°C° 0 mm 1 mps 736 mmHg 69%
    01:00 +9°C° 0 mm 1 mps 736 mmHg 70%
    02:00 +8°C° 0 mm 1 mps 735 mmHg 72%
    03:00 +8°C° 0 mm 1 mps 735 mmHg 73%
    04:00 +8°C° 0 mm 1 mps 735 mmHg 74%
    05:00 +7°C° 0 mm 1 mps 734 mmHg 75%
    06:00 +6°C° 0 mm 0 mps 734 mmHg 76%
    07:00 +7°C° 0 mm 0 mps 734 mmHg 73%
    08:00 +8°C° 0 mm 0 mps 735 mmHg 69%
    09:00 +9°C° 0 mm 0 mps 735 mmHg 66%
    10:00 +11°C° 0 mm 1 mps 735 mmHg 61%
    11:00 +13°C° 0 mm 1 mps 735 mmHg 57%
    12:00 +14°C° 0 mm 1 mps 734 mmHg 52%
    13:00 +15°C° 0 mm 2 mps 734 mmHg 51%
    14:00 +16°C° 0 mm 2 mps 733 mmHg 50%
    15:00 +16°C° 0 mm 3 mps 732 mmHg 49%
    16:00 +15°C° 0 mm 2 mps 732 mmHg 55%
    17:00 +13°C° 0 mm 2 mps 732 mmHg 61%
    18:00 +12°C° 0 mm 2 mps 732 mmHg 67%
    19:00 +11°C° 0 mm 1 mps 733 mmHg 71%
    20:00 +10°C° 0 mm 1 mps 733 mmHg 75%
    21:00 +10°C° 0 mm 1 mps 733 mmHg 79%
    22:00 +9°C° 0 mm 1 mps 733 mmHg 81%
    23:00 +9°C° 0 mm 1 mps 733 mmHg 83%

    27 January, Sunday

    Time Temperature Precipitation Wind Pressure Humidity
    00:00 +9°C° 0 mm 1 mps 733 mmHg 85%
    01:00 +8°C° 0 mm 1 mps 733 mmHg 86%
    02:00 +8°C° 0 mm 1 mps 732 mmHg 88%
    03:00 +6°C° 0 mm 0 mps 732 mmHg 90%
    04:00 +6°C° 0 mm 0 mps 732 mmHg 90%
    05:00 +5°C° 0 mm 0 mps 732 mmHg 91%
    06:00 +5°C° 0 mm 0 mps 732 mmHg 92%
    07:00 +5°C° 0 mm 0 mps 732 mmHg 89%
    08:00 +6°C° 0 mm 0 mps 733 mmHg 87%
    09:00 +7°C° 0 mm 0 mps 733 mmHg 84%
    10:00 +9°C° 0 mm 1 mps 733 mmHg 77%
    11:00 +10°C° 0 mm 1 mps 733 mmHg 70%
    12:00 +12°C° 0 mm 2 mps 733 mmHg 62%
    13:00 +13°C° 0 mm 2 mps 733 mmHg 58%
    14:00 +13°C° 0 mm 2 mps 732 mmHg 54%
    15:00 +14°C° 0 mm 2 mps 732 mmHg 50%
    16:00 +13°C° 0 mm 1 mps 732 mmHg 54%
    17:00 +12°C° 0 mm 1 mps 732 mmHg 57%
    18:00 +11°C° 0 mm 1 mps 732 mmHg 61%
    19:00 +11°C° 0 mm 1 mps 733 mmHg 65%
    20:00 +10°C° 0 mm 1 mps 733 mmHg 69%
    21:00 +9°C° 0 mm 1 mps 733 mmHg 73%
    22:00 +9°C° 0 mm 1 mps 733 mmHg 75%
    23:00 +8°C° 0 mm 1 mps 733 mmHg 78%
    Show more